OneWeb SL0262

operational
NORAD ID: 48980 Int'l Des: 2021-060 Owner: ONEWEBN Country: UK Constellation: oneweb
LEOCIRCULARPOLARONEWEB_TYPE

Über OneWeb SL0262

Beschreibung wird geladen...

Live-Position

3D-Globus wird geladen...

Nächste Überflüge

Höhenverlauf

Altitude vs Time

uPlot chart will show altitude changes over time

Zweizeiliger Elementsatz

1 48980U 21060P 25304.66856729 .00000151 00000-0 36055-3 0 9990
2 48980 87.8990 274.2857 0002253 85.2549 274.8839 13.16595954209552
Epoch: 31. Okt. 2025 • Age: 27 hours

Aktueller Status

Höhe 1214.5 km
Geschwindigkeit 7.25 km/s
Subsatellitenpunkt -41.29°S, 57.04°W
Startdatum 1. Juli 2021
Alter 4.3 years
Typ internet

Technische Details

Klassifizierung Payload
Masse 148.00 kg
Trockenmasse 140.00 kg
Gesamtmasse 148.00 kg
Länge 1.30 m
Durchmesser 1.00 m
Spannweite 5.00 m
Form Trapezoid+2 pan
Hersteller ONEWUS
Bus-Typ ARROW
Phasenstatus In Orbit
Besitzer/Staat ONEWEBN/UK

Große Konstellationen

Loading constellations...